Regional Weather Roundup
Issued by NWS

Home | Current Version | Previous Version | Graphics & Text | Print | Product List | Glossary On
Versions: 1 2 3 4 5 6 7 8 9 10 11 12 13 14 15 16 17 18 19 20 21 22 23 24 25 26 27 28 29 30 31 32 33 34 35 36 37 38 39 40 41 42 43 44 45 46 47 48 49 50
113
ASUS43 KLSX 281710
RWRMO

WEATHER SUMMARY FOR MISSOURI
NATIONAL WEATHER SERVICE SPRINGFIELD MO
1200 PM CDT SUN AUG 28 2016

NOTE: "FAIR" INDICATES FEW OR NO CLOUDS BELOW 12,000 FEET WITH NO
       SIGNIFICANT WEATHER AND/OR OBSTRUCTIONS TO VISIBILITY.
       CURRENT SKY AND/OR WEATHER CONDITIONS ARE NOT AVAILABLE FOR
       CHILLICOTHE AND FARMINGTON.

MOZ001>031-035>038-043-044-053-054-281800-
...NORTHERN AND WESTERN MISSOURI...

CITY           SKY/WX    TMP DP  RH WIND       PRES   REMARKS
KANSAS CTY INT MOSUNNY   86  71  60 SE6       30.14S HX  91
KANSAS C DTWN  SUNNY     89  71  55 SE7       30.12S HX  95
LEE`S SUMMIT   SUNNY     85  70  60 SE7       30.15S
ST JOSEPH      PTSUNNY   84  73  69 S6        30.12S HX  90
KIRKSVILLE     MOSUNNY   84  73  69 E3        30.18R HX  90

$$
MOZ066>068-077>081-088>096-101>105-281800-
...SOUTHWEST MISSOURI...

CITY           SKY/WX    TMP DP  RH WIND       PRES   REMARKS
SPRINGFIELD    MOSUNNY   86  67  52 SE5       30.16F
JOPLIN         SUNNY     86  70  58 SW7       30.14F HX  90
BRANSON        MOSUNNY   84  72  65 E7        30.18F

$$
MOZ032>034-039>042-045>050-055>058-069>072-281800-
...CENTRAL MISSOURI...

CITY           SKY/WX    TMP DP  RH WIND       PRES   REMARKS
COLUMBIA       MOSUNNY   85  74  69 VRB3      30.17S HX  92
JEFFERSON CITY PTSUNNY   86  74  67 CALM      30.15S HX  94
ROLLA          MOSUNNY   85  71  63 CALM      30.18S HX  90
SEDALIA        MOSUNNY   88  72  58 VRB3      30.17S HX  94
WHITEMAN AFB   PTSUNNY   84  77  79 S3        30.14S HX  94
OSAGE BEACH    MOSUNNY   86  73  65 S3        30.17S HX  93

$$
MOZ051-052-059>065-281800-
...EAST CENTRAL MISSOURI...

CITY           SKY/WX    TMP DP  RH WIND       PRES   REMARKS
ST LOUIS INTL  PTSUNNY   92  67  43 VRB3      30.17F HX  95
SPIRIT OF STL  CLOUDY    88  73  61 CALM      30.15F HX  95
ST CHARLES     SUNNY     88  71  57 SE3       30.16S HX  94

$$
MOZ072>076-082>087-097>100-106>115-281800-
...SOUTH CENTRAL AND SOUTHEAST MISSOURI...

CITY           SKY/WX    TMP DP  RH WIND       PRES   REMARKS
CAPE GIRARDEAU SUNNY     88  73  61 VRB5      30.15F HX  95
FARMINGTON     SUNNY     88  72  58 E6        30.19F HX  94
POPLAR BLUFF   SUNNY     89  75  63 E7        30.14F HX  99
WEST PLAINS    SUNNY     86  68  54 E6        30.20F

$$




USA.gov is the U.S. government's official web portal to all federal, state and local government web resources and services.